Content
SEND FEEDBACK

Daily
Averages
Monthly
Summary
United States of America

MIDLAND, MICHIGAN


Home > North America > United States > Michigan
Elevation: 628 feet     Latitude: 43 39N     Longitude: 084 15W

WEATHER
 
SELECT A DAY
Number of Records: 117,706;   Date Range: 1/13/10 - 12/19/14
 
SHARE

PRINT THIS DATA

[ ← Previous Day ]
WEATHER ALMANAC - AUGUST 18, 2013
[ Next Day → ]
[ °C ]   °F
Weather ElementAverageHighLow
Temperature66.2 °F81.9 °F (4:34 pm)48.7 °F (6:54 am)
Dewpoint54 °F58.5 °F (9:13 am)48.6 °F (6:14 am)
Humidity70.7 %99 % (3:34 am)35 % (3:34 pm)
Barometer30.18 in30.24 in (7:54 am)30.11 in (7:54 pm)
Wind Speed1.2 mph8.1 mph (3:34 pm)
Weather ElementAverage
Visibility9.2 mi
Wind DirectionENE (54.4 °)

Weather ElementTotal
Precipitation---
Cooling Degree Days0.3 (Base 65)
Growing Degree Days15.3 (Base 50)
Averaged from 71 records on August 18, 2013
WEATHER CONDITIONS BREAKOUT
WIND DIRECTION BREAKOUT
WEATHER BY HOUR - AUGUST 18, 2013
[ °C ]   °F
Local TimeTemperatureDewpointHumidityBarometerVisibilityWind DirectionWind SpeedGust SpeedPrecipitationEventsConditions
12:34 AM55.9 °F54.7 °F96 %30.20 in10.0 miCalmClear
12:54 AM56.7 °F55.4 °F96 %30.20 in10.0 miCalmClear
1:13 AM55.8 °F54.5 °F96 %30.20 in10.0 miCalmClear
1:34 AM55.8 °F54.5 °F96 %30.20 in10.0 miCalmClear
1:53 AM55.0 °F54.1 °F97 %30.20 in10.0 miCalmClear
2:14 AM54.5 °F53.8 °F97 %30.20 in10.0 miCalmClear
2:34 AM54.7 °F54.1 °F98 %30.20 in10.0 miCalmClear
2:53 AM54.5 °F54.0 °F98 %30.20 in10.0 miCalmClear
3:14 AM52.9 °F52.3 °F98 %30.20 in7.0 miCalmClear
3:34 AM52.7 °F52.3 °F99 %30.20 in10.0 miCalmClear
3:53 AM52.7 °F52.2 °F98 %30.20 in10.0 miCalmClear
4:14 AM51.4 °F51.1 °F99 %30.21 in5.0 miCalmClear
4:33 AM50.9 °F50.7 °F99 %30.21 in7.0 miNW (320°)4.6 mphClear
4:54 AM52.5 °F52.2 °F99 %30.21 in10.0 miCalmClear
5:14 AM50.2 °F50.0 °F99 %30.22 in5.0 miNNW (330°)3.5 mphClear
5:33 AM49.1 °F48.7 °F99 %30.22 in0.8 miCalmMist
5:54 AM50.0 °F49.8 °F99 %30.22 in7.0 miCalmClear
6:14 AM49.1 °F48.6 °F98 %30.22 in4.0 miCalmClear
6:33 AM49.6 °F49.3 °F99 %30.22 in7.0 miCalmClear
6:54 AM48.7 °F48.6 °F99 %30.22 in5.0 miCalmClear
7:14 AM49.1 °F48.7 °F99 %30.23 in0.8 miCalmMist
7:33 AM49.8 °F49.5 °F99 %30.23 in7.0 miCalmClear
7:54 AM52.2 °F52.0 °F99 %30.24 in7.0 miCalmScattered Clouds
8:14 AM54.5 °F54.1 °F99 %30.24 in10.0 miCalmScattered Clouds
8:33 AM56.8 °F55.4 °F95 %30.24 in10.0 miCalmClear
8:54 AM61.3 °F58.1 °F89 %30.24 in10.0 miCalmClear
9:13 AM63.5 °F58.5 °F84 %30.24 in10.0 miCalmClear
9:34 AM66.9 °F57.9 °F73 %30.24 in10.0 miCalmClear
9:54 AM69.4 °F58.3 °F68 %30.24 in10.0 miCalmClear
10:13 AM71.2 °F58.3 °F64 %30.23 in10.0 miCalmClear
10:34 AM73.2 °F57.6 °F58 %30.23 in10.0 miCalmClear
10:54 AM74.8 °F57.6 °F55 %30.23 in10.0 miCalmClear
11:13 AM75.6 °F56.5 °F51 %30.22 in10.0 miCalmClear
11:34 AM77.7 °F57.7 °F50 %30.22 in10.0 miCalmClear
11:54 AM77.5 °F54.3 °F44 %30.22 in10.0 miCalmClear
12:13 PM78.8 °F55.4 °F44 %30.21 in10.0 miSSW (210°)5.8 mphClear
12:34 PM77.2 °F54.7 °F46 %30.20 in10.0 miCalmScattered Clouds
12:54 PM78.8 °F54.1 °F42 %30.20 in10.0 miCalmMostly Cloudy
1:13 PM78.6 °F54.7 °F43 %30.20 in10.0 miNW (310°)4.6 mphMostly Cloudy
1:34 PM79.2 °F54.9 °F43 %30.19 in10.0 miCalmMostly Cloudy
1:54 PM80.6 °F54.3 °F40 %30.18 in10.0 miCalmMostly Cloudy
2:14 PM80.6 °F53.8 °F39 %30.18 in10.0 miCalmMostly Cloudy
2:34 PM78.6 °F53.2 °F41 %30.17 in10.0 miSSW (210°)4.6 mphScattered Clouds
2:54 PM80.8 °F54.3 °F40 %30.17 in10.0 miSouth (180°)5.8 mphScattered Clouds
3:14 PM81.3 °F52.9 °F37 %30.16 in10.0 miSouth (180°)3.5 mphMostly Cloudy
3:34 PM81.5 °F51.4 °F35 %30.16 in10.0 miSW (220°)8.1 mphScattered Clouds
3:54 PM81.7 °F52.2 °F36 %30.15 in10.0 miSW (230°)5.8 mphClear
4:14 PM81.7 °F53.2 °F37 %30.15 in10.0 miCalmClear
4:34 PM81.9 °F52.0 °F35 %30.14 in10.0 miSW (220°)5.8 mphClear
4:54 PM81.5 °F53.1 °F37 %30.14 in10.0 miCalmClear
5:14 PM81.3 °F52.5 °F37 %30.13 in10.0 miSW (220°)8.1 mphClear
5:34 PM81.3 °F52.9 °F37 %30.13 in10.0 miCalmClear
5:54 PM80.6 °F52.3 °F37 %30.12 in10.0 miSW (220°)3.5 mphClear
6:14 PM80.8 °F53.4 °F39 %30.12 in10.0 miCalmClear
6:34 PM80.6 °F53.8 °F39 %30.12 in10.0 miSW (220°)5.8 mphClear
6:54 PM80.6 °F54.1 °F40 %30.12 in10.0 miSSW (200°)5.8 mphClear
7:14 PM79.3 °F52.0 °F38 %30.12 in10.0 miSSW (200°)3.5 mphClear
7:34 PM78.6 °F52.9 °F41 %30.12 in10.0 miSSW (200°)3.5 mphClear
7:54 PM77.2 °F53.6 °F44 %30.11 in10.0 miSouth (190°)3.5 mphClear
8:14 PM70.7 °F57.6 °F63 %30.11 in10.0 miCalmClear
8:33 PM67.6 °F57.9 °F71 %30.11 in10.0 miCalmClear
8:54 PM66.2 °F58.1 °F75 %30.11 in10.0 miCalmClear
9:14 PM63.9 °F56.1 °F76 %30.11 in10.0 miCalmClear
9:33 PM62.1 °F56.7 °F82 %30.12 in10.0 miCalmClear
9:54 PM61.7 °F55.8 °F81 %30.12 in10.0 miCalmClear
10:14 PM60.4 °F55.2 °F83 %30.12 in10.0 miCalmClear
10:34 PM61.0 °F56.3 °F85 %30.11 in10.0 miCalmClear
10:54 PM60.1 °F57.4 °F91 %30.11 in10.0 miCalmClear
11:14 PM58.3 °F56.3 °F93 %30.11 in10.0 miCalmClear
11:34 PM58.3 °F55.9 °F92 %30.11 in10.0 miCalmClear
11:54 PM57.4 °F55.0 °F92 %30.11 in10.0 miCalmClear
Hourly data recorded from KIKW, located miles away from Midland, Michigan







STORIES FROM OUR PARTNERS